Regional Weather Roundup
Issued by NWS

Home | Current Version | Previous Version | Text Only | Print | Product List | Glossary On
Versions: 1 2 3 4 5 6 7 8 9 10 11 12 13 14 15 16 17 18 19 20 21 22 23 24 25 26 27 28 29 30 31 32 33 34 35 36 37 38 39 40 41 42 43 44 45 46 47 48 49 50
000
ASUS43 KDTX 251001
RWRMI
MICHIGAN HOURLY REGIONAL WEATHER ROUNDUP
NATIONAL WEATHER SERVICE DETROIT/PONTIAC MI
600 AM EDT TUE JUL 25 2017

NOTE: "FAIR" INDICATES FEW OR NO CLOUDS BELOW 12,000 FEET WITH NO
SIGNIFICANT WEATHER AND/OR OBSTRUCTION TO VISIBILITY.

MIZ047>049-052>055-059>063-066>070-074>076-081>083-251100-
SOUTHEAST LOWER MICHIGAN

CITY           SKY/WX    TMP DP  RH WIND       PRES   REMARKS
ADRIAN         CLEAR     52  50  93 CALM      30.19R
ALMA           CLEAR     47  46  97 CALM      30.19R FOG
ANN ARBOR      FOG       44  44 100 CALM      30.18S VSB 1/2
BAD AXE        PTCLDY    47  47  99 CALM      30.19R
CARO           CLEAR     47  46  96 CALM      30.18R FOG
DETROIT CITY   CLEAR     58  51  78 N5        30.17R
DETROIT        PTCLDY    56  51  84 W3        30.19R
FLINT          CLEAR     50  48  93 CALM      30.19R
GROSSE ILE     CLEAR     55  52  88 NW5       30.17R
HILLSDALE      CLEAR     50  50 100 CALM      30.18S
HOWELL         CLEAR     52  51  97 CALM      30.19S

CITY           SKY/WX    TMP DP  RH WIND       PRES   REMARKS
JACKSON        CLEAR     52  49  89 CALM      30.19R
LAMBERTVILLE   CLEAR     50  49  97 CALM      30.18R
LANSING        CLEAR     52  50  93 CALM      30.20R
LAPEER         FAIR      49  48  98 CALM      30.20R
MASON          CLEAR     50  50 100 E5        30.19R
MONROE         CLEAR     53  52  96 CALM      30.17R
MT. CLEMENS    CLEAR     55  52  89 NW5       30.16R
PONTIAC        PTCLDY    54  52  93 CALM      30.18R
PORT HOPE        N/A     56  53  90 CALM      30.16R
PORT HURON     CLEAR     55  52  88 NW5       30.17R
TRI CITIES     CLEAR     56  53  90 CALM      30.20R
MIDLAND        MOCLDY    49  49 100 CALM      30.19R
TROY           CLEAR     58  48  68 CALM      30.19R
SAGINAW HB     CLEAR     50  48  93 CALM      30.18R
$$
MIZ043>046-050>051-056>058-064>065-071>073-077>080-251100-
SOUTHWEST LOWER MICHIGAN

CITY           SKY/WX    TMP DP  RH WIND       PRES   REMARKS
BATTLE CREEK   CLEAR     56  54  93 CALM      30.19R
BENTON HARBOR  CLEAR     56  53  90 CALM      30.17R FOG
BIG RAPIDS     CLEAR     53  50  92 CALM      30.19R
COLDWATER      CLEAR     53  53 100 CALM      30.19R
FREMONT        FAIR      57  53  89 CALM      30.18R
HOLLAND        CLEAR     58  55  90 CALM      30.19R
GRAND RAPIDS   PTCLDY    58  55  90 CALM      30.18R
IONIA            N/A     52  52 100 CALM      30.19R FOG
KALAMAZOO      CLEAR     56  52  86 CALM      30.20R
LUDINGTON      PTCLDY    53  53  99 E3        30.17R
MARSHALL       FOG       52  52  98 CALM      30.18R VSB 1/4
MOUNT PLEASANT CLEAR     55  53  91 CALM      30.19R
MUSKEGON       PTCLDY    58  55  90 SE5       30.18R
SOUTH HAVEN    CLEAR     57  57  99 CALM      30.18R
$$
MIZ016>042-251100-
NORTHERN LOWER MICHIGAN

CITY           SKY/WX    TMP DP  RH WIND       PRES   REMARKS
ALPENA         CLEAR     50  50 100 SW3       30.18R
BELLAIRE       CLEAR     46  45  95 CALM      30.19R
CADILLAC       CLEAR     47  44  90 CALM      30.19R
CHARLEVOIX     CLEAR     54  50  88 SE5       30.20R
FRANKFORT      CLOUDY    50  50  99 CALM      30.18R
GAYLORD        CLEAR     49  44  83 CALM      30.20R
GRAYLING       CLEAR     43  41  93 CALM      30.20R FOG
HARBOR SPRINGS PTCLDY    50  49  95 CALM      30.18R
HOUGHTON LAKE  CLEAR     47  46  97 CALM      30.20R
MANISTEE       CLOUDY    50  49  96 CALM      30.17R
OSCODA         CLEAR     52  49  90 CALM      30.18R
PELLSTON       CLEAR     45  44  97 CALM      30.18R
ROGERS CITY    CLEAR     51  49  91 CALM      30.18R
TRAVERSE CITY  CLEAR     50  48  93 CALM      30.17R
$$
MIZ007>008-015-251100-
EASTERN UPPER MICHIGAN

CITY           SKY/WX    TMP DP  RH WIND       PRES   REMARKS
KINROSS        CLEAR     51  50  96 NW3       30.18R
MACKINAC ISLAN CLEAR     54  54 100 W3        30.17R
NEWBERRY       CLEAR     45  44  97 CALM      30.18R
S. S. MARIE    CLEAR     52  50  93 CALM      30.17R
MUNISING         N/A     58  57  97 S6        30.15R
$$
MIZ004>006-011>014-085-251100-
CENTRAL UPPER MICHIGAN

CITY           SKY/WX    TMP DP  RH WIND       PRES   REMARKS
MANISTIQUE     FOG       47  45  90 CALM      30.17R VSB 1/2
ESCANABA       PTCLDY    54  54 100 W3        30.17R
MENOMINEE      PTCLDY    53  53 100 CALM      30.17R FOG
SAWYER-GWINN   CLOUDY    52  51  94 CALM      30.17S
$$
MIZ001>003-009>011-084-251100-
WESTERN UPPER MICHIGAN

CITY           SKY/WX    TMP DP  RH WIND       PRES   REMARKS
IRON MOUNTAIN  PTCLDY    53  50  89 CALM      30.15S
HOUGHTON       CLEAR     59  52  77 SW6       30.11R
COPPER HARBOR    N/A     62  54  74 SW9       30.09R
IRONWOOD       PTCLDY    60  55  83 VRB7      30.11R
$$

ABBREVIATIONS USED IN REMARKS
   TC - TEMPERATURE IN CELSIUS
  WCI - WIND CHILL INDEX
   HX - HEAT INDEX
  VSB - VISIBILITY





USA.gov is the U.S. government's official web portal to all federal, state and local government web resources and services.